Location: Hilton Head Island
(32.2163°N, 80.7526°W)
Time: 15:41:59
(UTC-05:00)

Explorer 11/Cluster Stage 4 - Pass Details

Date: 19 February 2026
Orbit: 463 x 1176 km, 28.8° (Epoch: 6 March)

Event Time Altitude Azimuth Distance (km) Brightness Sun altitude
Rises 18:04:46 0° 258° (WSW) 2,472 13.7 0.8°
Reaches altitude 10° 18:08:23 10° 219° (SW) 1,632 9.2 0.1°
Maximum altitude 18:09:24 11° 203° (SSW) 1,593 8.7 -0.2°
Drops below altitude 10° 18:10:27 10° 187° (S) 1,672 8.6 -0.4°
Sets 18:14:21 0° 149° (SSE) 2,674 9.1 -1.2°
